Find Local Weather

World > North America > United States > North Carolina

Ahoskie, North Carolina Regional Weather

Lat: 36.29N, Lon: 76.99W
Wx Zone: NCZ013
Feedback

Ahoskie, NC Regional Weather

Expires:201903241800;;855167
ASUS41 KAKQ 241714
RWRAKQ

REGIONAL WEATHER ROUNDUP
NATIONAL WEATHER SERVICE WAKEFIELD VA
100 PM EDT SUN MAR 24 2019

Note: "fair" indicates few or no clouds below 12,000 feet with no
significant weather and/or obstructions to visibility. * = Denotes
station may not report precipitation (e.g., rain,snow,etc.),
thunder or fog.


NCZ012>017-030>032-241800-
NORTH CENTRAL AND EASTERN NORTH CAROLINA
  
CITY           SKY/WX    TMP DP  RH WIND       PRES   REMARKS
ROANOKE RAPIDS FAIR      63  37  39 SW10G20   30.29F                  
RALEIGH        FAIR      65  27  23 SW15      30.30F                  
ELIZABETH CITY FAIR      62  26  25 S10       30.32F                  
AHOSKIE*       FAIR      63  28  26 SW8       30.30F                  
EDENTON*       FAIR      64  32  29 S6        30.32F                  
CURRITUCK*     FAIR      60  27  28 MISG      30.31F                  
KILL DEVIL HLS FAIR      57  24  28 SE6       30.32F                  
MANTEO         FAIR      58  17  20 S7        30.33F                  
CAPE HATTERAS  FAIR      63  36  36 S5        30.34S                  
TARBORO*       FAIR      65  27  24 SW8       30.30F                  
GOLDSBORO      FAIR      67  26  21 SW8       30.30F                  
WASHINGTON     FAIR      66  24  20 S5        30.32F                  
GREENVILLE     FAIR      66  28  24 SW12G17   30.32F                  
NEW BERN       FAIR      67  28  23 SW8       30.33F                  
WILMINGTON     FAIR      67  27  22 S14       30.34F                  
$$


SKY/WX - Weather  TMP - Temperature  DP - Dew Point  RH - Relative Humidity
WIND - Wind Direction/Speed PRES - Barometric Pressure VSB - Visibility
WCI - Wind Chill Index E13G22 Wind - East Wind 13 mph/Gusts of 22 mph